Weather History for K1A6 - March, 2014

Change the Weather History Date:

Friday, March 21, 2014

  Actual Average (KLOZ) Record (KLOZ)
Temperature  
Mean Temperature 46 °F 49 °F  
Max Temperature 66 °F 60 °F 83 °F (2012)
Min Temperature 27 °F 37 °F 13 °F (1965)
Degree Days  
Heating Degree Days 18 16  
Month to date heating degree days 401  
Since 1 July heating degree days 3677  
Cooling Degree Days 0 0  
Month to date cooling degree days 0  
Year to date cooling degree days 0  
Moisture  
Dew Point 25 °F    
Average Humidity 50    
Maximum Humidity 94    
Minimum Humidity 17    
Precipitation  
Precipitation 0.00 in 0.13 in 2.48 in (1955)
Month to date precipitation 2.74  
Year to date precipitation 9.99  
Sea Level Pressure  
Sea Level Pressure 30.07 in    
Wind  
Wind Speed 3 mph (South)    
Max Wind Speed 13 mph    
Max Gust Speed 21 mph    
Visibility 10 miles    
Events      
T = Trace of Precipitation, MM = Missing Value Source: NWS Daily Summary

Daily Weather History Graph

Daily Weather History Graph

Search for Another Location

Airport or City:

Trip Planner

Search our weather history database for the weather conditions in past years. The results will help you decide how hot, cold, wet, or windy it might be!

Date:

Astronomy

Mar. 21, 2014 Rise Set
Actual Time 6:37 AM CDT 6:47 PM CDT
Civil Twilight 6:11 AM CDT 7:13 PM CDT
Nautical Twilight 5:41 AM CDT 7:43 PM CDT
Astronomical Twilight 5:10 AM CDT 8:14 PM CDT
Moon 11:59 PM CDT (3/21) 9:35 AM CDT (3/21)
Length of Visible Light 13h 02m
Length of Day
12h 10m
Waning Gibbous, 75% of the Moon is Illuminated
Mar 21
Waning Gibbous
Mar 23
Last Quarter
Mar 30
New
Apr 7
First Quarter
Apr 15
Full

Hourly Weather History & Observations

Time (CDT) Temp. Dew Point Humidity Pressure Visibility Wind Dir Wind Speed Gust Speed Precip Events Conditions
12:15 AM 33.3 °F 28.6 °F 83% 30.14 in 10.0 mi Calm Calm - N/A   Clear
12:35 AM 33.1 °F 28.2 °F 82% 30.13 in 10.0 mi Calm Calm - N/A   Clear
12:55 AM 32.2 °F 28.9 °F 88% 30.13 in 10.0 mi Calm Calm - N/A   Clear
1:15 AM 32.0 °F 28.4 °F 87% 30.13 in 10.0 mi Calm Calm - N/A   Clear
1:35 AM 31.3 °F 28.0 °F 88% 30.13 in 10.0 mi Calm Calm - N/A   Clear
1:55 AM 31.1 °F 27.5 °F 87% 30.12 in 10.0 mi Calm Calm - N/A   Clear
2:15 AM 31.1 °F 27.5 °F 87% 30.12 in 10.0 mi Calm Calm - N/A   Clear
2:35 AM 30.4 °F 27.5 °F 89% 30.13 in 10.0 mi Calm Calm - N/A   Clear
2:55 AM 30.7 °F 27.5 °F 88% 30.13 in 10.0 mi Calm Calm - N/A   Clear
3:15 AM 30.0 °F 27.3 °F 90% 30.13 in 10.0 mi Calm Calm - N/A   Clear
3:35 AM 29.7 °F 26.6 °F 88% 30.14 in 10.0 mi Calm Calm - N/A   Clear
3:55 AM 29.8 °F 27.3 °F 90% 30.14 in 10.0 mi Calm Calm - N/A   Clear
4:15 AM 29.5 °F 26.8 °F 90% 30.14 in 10.0 mi Calm Calm - N/A   Clear
4:35 AM 29.1 °F 27.3 °F 93% 30.14 in 10.0 mi Calm Calm - N/A   Clear
4:55 AM 29.1 °F 27.1 °F 92% 30.14 in 10.0 mi Calm Calm - N/A   Clear
5:15 AM 28.9 °F 26.8 °F 92% 30.14 in 10.0 mi Calm Calm - N/A   Clear
5:35 AM 28.4 °F 26.6 °F 93% 30.14 in 10.0 mi Calm Calm - N/A   Clear
5:55 AM 28.2 °F 26.4 °F 93% 30.14 in 10.0 mi Calm Calm - N/A   Clear
6:15 AM 28.0 °F 26.4 °F 94% 30.14 in 10.0 mi Calm Calm - N/A   Clear
6:35 AM 27.9 °F 25.9 °F 92% 30.14 in 10.0 mi Calm Calm - N/A   Clear
6:55 AM 27.9 °F 26.4 °F 94% 30.14 in 10.0 mi Calm Calm - N/A   Clear
7:15 AM 28.2 °F 26.4 °F 93% 30.14 in 10.0 mi Calm Calm - N/A   Clear
7:35 AM 28.9 °F 27.1 °F 93% 30.14 in 10.0 mi Calm Calm - N/A   Clear
7:55 AM 30.6 °F 28.0 °F 90% 30.15 in 10.0 mi Calm Calm - N/A   Clear
8:15 AM 32.0 °F 28.8 °F 88% 30.15 in 10.0 mi Calm Calm - N/A   Clear
8:35 AM 34.2 °F 29.1 °F 82% 30.16 in 10.0 mi Calm Calm - N/A   Clear
8:55 AM 37.4 °F 30.4 °F 76% 30.16 in 10.0 mi Calm Calm - N/A   Clear
9:15 AM 39.6 °F 30.6 °F 70% 30.16 in 10.0 mi Calm Calm - N/A   Clear
9:35 AM 43.0 °F 31.8 °F 65% 30.15 in 10.0 mi Calm Calm - N/A   Clear
9:55 AM 48.4 °F 31.6 °F 52% 30.15 in 10.0 mi Calm Calm - N/A   Clear
10:15 AM 53.6 °F 28.0 °F 37% 30.14 in 10.0 mi SSW 3.5 mph - N/A   Clear
10:35 AM 56.1 °F 25.9 °F 31% 30.12 in 10.0 mi South 6.9 mph - N/A   Clear
10:55 AM 57.2 °F 27.0 °F 31% 30.12 in 10.0 mi SSE 8.1 mph - N/A   Clear
11:15 AM 58.6 °F 27.9 °F 31% 30.11 in 10.0 mi SSE 8.1 mph - N/A   Clear
11:35 AM 59.9 °F 28.4 °F 30% 30.11 in 10.0 mi South 10.4 mph - N/A   Clear
11:55 AM 60.4 °F 27.9 °F 29% 30.10 in 10.0 mi SSE 11.5 mph - N/A   Clear
12:15 PM 61.0 °F 25.7 °F 26% 30.10 in 10.0 mi SSE 8.1 mph - N/A   Clear
12:35 PM 62.2 °F 24.8 °F 24% 30.09 in 10.0 mi South 8.1 mph - N/A   Clear
12:55 PM 62.8 °F 27.0 °F 26% 30.07 in 10.0 mi South 4.6 mph - N/A   Clear
1:15 PM 63.7 °F 24.8 °F 23% 30.07 in 10.0 mi South 11.5 mph 17.3 mph N/A   Clear
1:35 PM 64.2 °F 23.5 °F 21% 30.05 in 10.0 mi South 11.5 mph 20.7 mph N/A   Clear
1:55 PM 64.8 °F 23.0 °F 20% 30.04 in 10.0 mi SSE 12.7 mph 17.3 mph N/A   Clear
2:15 PM 65.5 °F 23.4 °F 20% 30.03 in 10.0 mi South 11.5 mph 17.3 mph N/A   Clear
2:35 PM 66.0 °F 19.9 °F 17% 30.02 in 10.0 mi SSW 12.7 mph 16.1 mph N/A   Clear
2:55 PM 65.3 °F 23.2 °F 20% 30.01 in 10.0 mi South 9.2 mph - N/A   Clear
3:15 PM 65.1 °F 18.9 °F 17% 30.01 in 10.0 mi SSW 6.9 mph 16.1 mph N/A   Clear
3:35 PM 65.3 °F 20.1 °F 18% 30.00 in 10.0 mi South 10.4 mph - N/A   Clear
3:55 PM 64.9 °F 20.1 °F 18% 29.99 in 10.0 mi South 8.1 mph - N/A   Clear
4:15 PM 64.9 °F 21.7 °F 19% 29.99 in 10.0 mi South 8.1 mph - N/A   Clear
4:35 PM 64.8 °F 22.1 °F 20% 29.99 in 10.0 mi South 4.6 mph - N/A   Clear
4:55 PM 64.4 °F 22.5 °F 20% 29.98 in 10.0 mi South 10.4 mph - N/A   Clear
5:15 PM 64.4 °F 23.0 °F 21% 29.98 in 10.0 mi South 8.1 mph - N/A   Clear
5:35 PM 63.5 °F 23.9 °F 22% 29.97 in 10.0 mi South 4.6 mph - N/A   Clear
5:55 PM 63.1 °F 24.4 °F 23% 29.98 in 10.0 mi South 4.6 mph - N/A   Clear
6:15 PM 62.8 °F 23.9 °F 23% 29.97 in 10.0 mi SE 3.5 mph - N/A   Clear
6:35 PM 61.5 °F 23.0 °F 23% 29.98 in 10.0 mi South 5.8 mph - N/A   Clear
6:55 PM 61.5 °F 19.0 °F 19% 29.98 in 10.0 mi South 5.8 mph - N/A   Clear
7:15 PM 61.0 °F 18.7 °F 19% 29.98 in 10.0 mi South 3.5 mph - N/A   Clear
7:35 PM 61.0 °F 18.3 °F 19% 29.98 in 10.0 mi South 9.2 mph - N/A   Clear
7:55 PM 58.8 °F 23.4 °F 26% 29.98 in 10.0 mi South 6.9 mph - N/A   Clear
8:15 PM 59.9 °F 21.7 °F 23% 29.98 in 10.0 mi SSW 8.1 mph - N/A   Clear
8:35 PM 59.9 °F 21.9 °F 23% 29.98 in 10.0 mi South 5.8 mph - N/A   Clear
8:55 PM 60.3 °F 22.8 °F 24% 29.99 in 10.0 mi SSW 8.1 mph - N/A   Clear
9:15 PM 59.9 °F 23.0 °F 24% 29.99 in 10.0 mi SE 6.9 mph - N/A   Clear
9:35 PM 60.3 °F 24.4 °F 25% 29.99 in 10.0 mi SSW 9.2 mph - N/A   Clear
9:55 PM 60.8 °F 24.8 °F 25% 29.99 in 10.0 mi SSW 6.9 mph 17.3 mph N/A   Clear
10:15 PM 61.2 °F 24.8 °F 25% 29.99 in 10.0 mi SSW 8.1 mph 16.1 mph N/A   Clear
10:35 PM 59.9 °F 25.7 °F 27% 29.98 in 10.0 mi SSW 6.9 mph - N/A   Clear
10:55 PM 60.4 °F 25.5 °F 26% 29.99 in 10.0 mi SW 10.4 mph - N/A   Clear
11:15 PM 60.8 °F 25.5 °F 26% 29.99 in 10.0 mi SSW 6.9 mph - N/A   Clear
11:35 PM 59.7 °F 25.7 °F 27% 29.99 in 10.0 mi South 4.6 mph - N/A   Clear
11:55 PM 60.1 °F 26.1 °F 27% 29.99 in 10.0 mi SW 3.5 mph - N/A   Clear